{"data":{"norad_id":89101,"intl_designator":"","name":"UNKNOWN","alt_names":[],"object_type":"UNKNOWN","status":"UNKNOWN","operator":null,"country":null,"launch_date":null,"launch_site_code":null,"launch_vehicle":null,"mission":null,"orbit_class":"UNKNOWN","rcs_meters":null,"size_class":null,"mass_kg":null,"dimensions":null,"purposes":[],"wikipedia_slug":null,"has_3d_model":false,"image_url":null,"decayed_at":null,"tle_current":{"epoch":"2026-05-19T14:32:33.277344Z","epoch_age_seconds":551297,"freshness":"STALE","line1":"1 89101U          26139.60594071 -.00000029  00000+0  40009-4 0  9990","line2":"2 89101 100.4775  76.4103 0147673 115.9660 245.6743 13.04046819575422","mean_motion":13.04046819,"eccentricity":0.0147673,"inclination_deg":100.4775,"raan_deg":76.4103,"arg_perigee_deg":115.966,"mean_anomaly_deg":245.6743,"bstar":4.0009e-5,"rev_number":57542,"period_min":110.42548312063,"perigee_km":1133.6835231404,"apogee_km":1358.8674968582,"semimajor_km":7624.4125099993,"source":"CELESTRAK","updated_at":"2026-05-25T13:38:11.777619Z"}}}